Total_Precipitation_Accumulation
3.69 3.89 4.48 4.31 3.57 3.34 3.37 3.33 3.39 3.30 3.30 3.41 3.37 3.24 3.09 2.98 2.77 2.78 2.78 2.81 2.83 3.01 3.23 3.36 3.43 3.44 3.35 3.22 3.15 3.11 2.97 2.77 3.09 3.22 3.31 3.30 3.19 3.23 3.35 3.46 3.55 2.62 2.48
3.06 3.12 3.65 3.56 3.31 3.31 3.22 3.25 3.28 3.17 3.22 3.33 3.33 3.22 3.03 2.85 2.80 2.76 2.72 2.81 2.90 3.00 3.24 3.31 3.18 3.05 2.85 2.74 2.80 2.96 2.94 2.91 3.24 3.46 3.61 3.59 3.53 3.50 3.54 3.54 3.55 2.44 2.30
2.48 2.52 2.82 3.04 2.89 2.94 2.91 2.84 2.83 2.85 3.10 3.18 3.19 3.24 3.15 2.94 2.92 2.86 2.71 2.88 3.01 2.93 3.05 3.01 2.83 2.65 2.48 2.40 2.52 2.89 2.97 3.15 3.67 3.91 4.28 3.81 3.27 3.65 3.59 3.50 3.14 2.41 2.27
2.04 2.17 2.30 2.72 2.61 2.46 2.40 2.45 2.64 2.65 2.67 2.77 2.97 3.21 3.30 3.20 3.07 3.02 2.88 3.02 3.07 2.91 3.00 2.88 2.58 2.31 2.21 2.23 2.49 2.74 2.90 3.23 3.74 4.28 4.53 3.52 2.69 3.09 3.16 3.00 2.87 2.50 2.32
1.77 1.94 2.29 2.41 2.31 2.19 2.16 2.23 2.50 2.40 2.38 2.51 2.64 2.96 3.23 3.30 3.38 3.31 3.07 3.04 2.90 2.82 2.86 2.72 2.36 2.15 2.02 2.03 2.36 2.56 2.72 3.20 3.85 4.04 3.57 3.43 3.16 2.94 2.71 2.67 2.69 2.44 2.20
1.55 1.74 2.08 2.22 2.09 1.98 2.01 2.15 2.39 2.28 2.33 2.43 2.45 2.80 3.03 3.06 3.10 3.09 3.07 2.90 2.72 2.63 2.61 2.73 2.32 2.15 2.08 2.12 2.36 2.47 2.68 3.17 3.59 3.19 2.77 2.91 2.68 2.68 2.62 2.72 2.74 2.57 2.22
1.51 1.78 1.97 2.13 2.06 1.98 2.05 2.14 2.28 2.28 2.26 2.31 2.47 2.77 2.86 2.83 2.95 2.94 2.86 2.58 2.38 2.45 2.48 2.51 2.36 2.16 2.13 2.26 2.32 2.39 2.72 3.13 2.95 2.57 2.52 2.73 2.22 2.15 2.53 2.85 3.12 2.92 2.47
1.33 1.64 1.81 2.02 2.06 1.99 1.97 2.01 2.14 2.04 2.04 2.20 2.42 2.59 2.52 2.48 2.61 2.65 2.63 2.50 2.24 2.33 2.28 2.20 2.34 2.24 2.31 2.36 2.27 2.18 2.40 2.67 2.32 2.12 2.25 2.37 1.89 2.05 2.59 3.00 3.36 3.21 2.82
1.25 1.48 1.78 2.04 2.06 2.01 1.96 1.90 2.05 2.11 2.03 2.09 2.23 2.36 2.43 2.42 2.36 2.29 2.40 2.43 2.25 2.18 2.07 2.07 2.27 2.45 2.49 2.32 2.05 1.99 2.20 2.58 2.38 2.14 1.91 2.00 1.85 2.15 2.74 3.06 3.26 3.18 2.95
1.62 1.67 1.71 1.67 1.75 1.84 1.89 1.99 2.10 2.18 2.13 2.14 2.19 2.30 2.43 2.37 2.26 2.15 1.99 2.18 2.23 2.14 2.05 2.02 2.21 2.39 2.26 2.13 1.99 2.12 2.36 2.47 2.29 2.21 2.09 1.83 1.89 2.33 2.85 3.02 3.20 3.07 2.90
2.20 2.25 1.97 1.74 1.70 1.83 1.75 1.85 2.35 2.54 2.44 2.51 2.61 2.58 2.68 2.70 2.50 2.45 2.30 2.45 2.34 2.34 2.36 2.32 2.36 2.52 2.26 1.97 2.10 2.38 2.38 2.34 2.62 2.67 2.13 1.76 2.07 2.70 3.04 3.11 3.11 2.96 2.89
2.68 2.72 2.32 2.00 1.80 1.67 1.47 1.97 2.57 2.48 2.59 2.77 2.83 2.65 2.93 3.14 3.01 2.45 2.75 3.10 3.05 3.13 2.99 2.84 2.78 2.59 2.47 2.25 2.63 2.97 2.46 2.65 2.96 2.78 2.26 2.10 2.62 3.18 3.59 3.55 3.19 2.88 2.75
3.02 2.91 2.46 2.18 1.99 1.73 1.86 1.96 2.30 2.59 2.92 2.87 2.63 2.60 3.01 2.89 2.67 2.67 2.92 3.11 3.27 3.11 2.98 2.95 3.05 2.83 3.08 3.51 3.61 3.33 2.77 2.86 2.97 2.84 2.49 2.48 3.13 3.89 4.30 4.10 3.55 3.14 2.91
3.16 2.88 2.56 2.34 2.15 2.01 1.95 1.99 2.16 2.30 2.60 2.75 2.79 2.68 2.93 3.37 3.33 3.26 3.40 3.37 3.45 3.57 3.93 3.67 3.78 3.54 3.55 3.59 3.70 3.43 3.12 3.18 3.18 3.41 3.48 3.25 3.55 4.08 4.66 4.56 3.99 3.55 3.42
3.29 3.08 2.81 2.45 2.50 2.42 2.55 2.65 2.32 2.39 2.55 2.84 3.12 3.05 3.08 3.51 3.54 3.50 3.54 3.64 3.39 3.42 3.72 4.08 3.85 3.88 4.05 3.89 3.54 3.34 3.39 3.41 3.47 3.52 3.63 3.76 3.67 3.83 4.51 4.75 4.40 4.02 3.91
3.71 3.67 3.41 2.99 3.01 3.05 2.95 2.99 2.93 2.63 2.87 2.99 3.16 3.09 3.21 3.50 3.71 3.68 3.47 3.61 3.44 3.36 3.55 3.86 3.84 4.28 4.28 4.27 3.84 3.55 3.49 3.52 3.51 3.57 3.58 3.94 3.83 3.64 4.06 4.52 4.68 4.58 4.40
3.83 3.97 3.91 3.73 3.80 3.79 3.58 3.35 3.15 3.05 3.02 3.32 3.48 3.35 3.38 3.44 3.73 3.72 3.64 3.51 3.50 3.52 3.75 3.87 3.90 4.27 4.25 4.20 4.10 3.78 3.60 3.32 3.20 3.34 3.32 3.53 3.46 3.39 3.63 4.07 4.46 4.65 4.73
3.96 4.21 4.41 4.28 4.33 4.26 4.22 4.04 3.68 3.56 3.57 3.52 3.45 3.49 3.36 3.47 3.63 3.92 3.72 3.42 3.51 3.48 3.68 4.10 4.23 4.46 4.63 4.57 4.28 3.90 3.67 3.57 3.30 3.25 3.07 3.03 3.32 2.93 3.24 3.71 4.06 4.32 4.87
4.25 4.68 5.09 5.18 5.10 4.84 4.57 4.48 4.36 4.21 3.99 3.70 3.64 3.54 3.37 3.33 3.36 3.75 3.70 3.63 3.61 3.84 3.88 3.65 4.34 4.68 4.82 4.71 3.92 3.74 3.34 3.29 3.16 2.90 2.96 2.88 3.10 3.14 3.23 3.16 3.32 3.66 4.61
4.71 5.36 5.50 5.54 5.83 5.64 5.35 5.23 5.06 4.67 4.28 3.94 3.78 3.64 3.31 3.26 3.22 3.65 3.49 3.51 3.60 3.99 4.17 4.26 4.75 4.76 4.58 4.68 3.87 3.52 3.04 2.69 2.69 2.74 2.54 2.61 2.73 2.63 2.92 3.37 3.72 3.42 3.93
4.54 5.19 5.89 6.14 6.04 5.90 5.67 5.26 4.93 4.57 4.34 3.97 3.57 3.29 3.22 3.21 3.38 3.95 3.58 3.95 3.83 3.90 4.00 4.15 4.48 4.51 4.26 4.48 4.55 3.88 2.93 2.35 2.33 2.23 2.24 2.40 2.30 2.31 2.69 3.36 3.66 3.72 3.51
3.94 4.43 4.95 5.33 5.05 4.74 4.63 4.61 4.53 4.50 4.06 3.88 3.70 3.73 3.39 3.40 3.46 3.57 3.87 3.79 3.84 4.02 3.81 3.87 4.28 4.20 3.74 4.09 4.56 4.67 3.74 3.05 2.42 1.84 2.04 2.13 2.25 2.45 2.39 2.48 2.95 3.57 3.56
3.37 3.53 3.75 4.04 4.14 4.21 4.34 4.50 4.69 4.86 4.51 4.34 4.22 4.08 3.58 3.48 3.47 3.61 3.60 3.59 3.75 3.67 3.70 3.74 3.90 4.07 3.95 3.87 4.25 4.68 4.12 3.44 2.73 2.09 1.97 1.94 2.23 2.54 2.48 2.49 2.71 3.19 3.44
2.73 2.96 3.49 3.77 3.94 4.19 4.54 4.61 4.62 4.58 4.54 4.48 4.51 4.42 4.24 3.94 3.71 3.53 3.40 3.38 3.41 3.27 3.45 3.20 3.52 3.79 4.02 3.70 3.80 3.75 3.61 3.60 3.48 2.75 2.18 2.03 2.24 2.42 2.52 2.45 2.57 2.95 3.26
2.29 2.61 3.22 3.82 4.12 4.37 4.63 4.69 4.96 4.81 4.67 4.49 4.51 4.57 4.37 4.04 3.67 3.29 3.33 3.36 3.35 3.16 3.06 3.03 3.34 3.32 3.44 3.49 3.54 3.52 3.58 3.55 3.37 3.13 2.70 2.43 2.28 1.99 2.00 2.15 2.37 2.70 2.96
2.41 2.72 3.19 3.74 4.22 4.41 4.46 4.47 4.61 4.65 4.67 4.40 4.27 3.95 3.55 3.39 3.24 2.97 3.01 3.10 3.01 2.99 3.02 2.98 3.06 3.08 3.19 3.29 3.33 3.30 3.46 3.42 3.39 3.45 3.06 2.77 2.52 2.13 1.93 2.00 2.16 2.41 2.62